Location: Kellogg
(38.0159°N, 90.0546°W)
Time: 21:43:44
(UTC+00:00)

Vanguard 1 - Pass Details

Date: 15 September 2024
Orbit: 648 x 3825 km, 34.3° (Epoch: 12 October)

Event Time Altitude Azimuth Distance (km) Brightness Sun altitude
Rises 00:22:19 0° 270° (W) 3,251 15.5 -3.5°
Reaches altitude 10° 00:25:43 10° 248° (WSW) 2,117 12.9 -4.2°
Maximum altitude 00:28:31 16° 209° (SSW) 1,682 11.6 -4.7°
Drops below altitude 10° 00:31:15 10° 171° (S) 2,052 11.6 -5.2°
Sets 00:34:28 0° 148° (SSE) 3,097 12.3 -5.9°
